�������l�o���
Date,Time,MP-1(��Sv/h),MP-2(��Sv/h),MP-3(��Sv/h),MP-4(��Sv/h),MP-5(��Sv/h),MP-6(��Sv/h),MP-7(��Sv/h),MP-8(��Sv/h),����,����(m/s),���J
2014/06/10,00:00,2.2,3.9,4.3,3.9,4.0,1.5,2.1,2.5,�k,3.6,��
2014/06/10,00:10,2.2,3.9,4.3,3.9,4.0,1.5,2.1,2.5,�k,3.9,��
2014/06/10,00:20,2.2,3.9,4.3,3.9,4.0,1.5,2.1,2.5,�k,3.0,��
2014/06/10,00:30,2.2,3.9,4.3,3.9,4.0,1.5,2.1,2.5,�k,3.2,��
2014/06/10,00:40,2.2,3.9,4.3,3.9,4.0,1.5,2.1,2.5,�k,2.7,�L
2014/06/10,00:50,2.2,3.9,4.3,3.9,4.0,1.5,2.1,2.5,�k,3.2,�L
2014/06/10,01:00,2.2,3.9,4.3,3.9,4.0,1.5,2.1,2.5,�k,3.1,�L
2014/06/10,01:10,2.2,3.9,4.3,3.9,4.0,1.5,2.1,2.5,�k,5.1,�L
2014/06/10,01:20,2.2,3.9,4.3,3.9,4.0,1.5,2.1,2.5,�k,4.2,�L
2014/06/10,01:30,2.2,3.8,4.3,3.9,4.0,1.5,2.1,2.5,�k,4.7,�L
2014/06/10,01:40,2.2,3.8,4.3,3.9,4.0,1.5,2.1,2.5,�k,4.9,�L
2014/06/10,01:50,2.2,3.8,4.3,3.9,4.0,1.5,2.1,2.5,�k,4.4,�L
2014/06/10,02:00,2.2,3.9,4.3,3.9,4.0,1.5,2.1,2.5,�k,4.6,�L
2014/06/10,02:10,2.2,3.9,4.3,3.9,4.0,1.5,2.1,2.5,�k,4.8,�L
2014/06/10,02:20,2.2,3.9,4.3,3.9,4.0,1.5,2.1,2.5,�k,4.2,�L
2014/06/10,02:30,2.2,3.8,4.3,3.8,4.0,1.5,2.1,2.5,�k,4.7,�L
2014/06/10,02:40,2.2,3.8,4.3,3.8,4.0,1.5,2.1,2.5,�k,4.5,�L
2014/06/10,02:50,2.2,3.8,4.3,3.8,4.0,1.5,2.1,2.5,�k,5.3,��
2014/06/10,03:00,2.2,3.8,4.3,3.8,4.0,1.5,2.1,2.5,�k,4.4,��
2014/06/10,03:10,2.2,3.8,4.3,3.8,4.0,1.5,2.1,2.5,�k,4.8,��
2014/06/10,03:20,2.2,3.8,4.3,3.8,4.0,1.5,2.1,2.5,�k,3.7,��
2014/06/10,03:30,2.2,3.8,4.3,3.9,4.0,1.5,2.1,2.5,�k,4.3,��
2014/06/10,03:40,2.2,3.8,4.3,3.9,4.0,1.5,2.1,2.5,�k,3.9,��
2014/06/10,03:50,2.2,3.8,4.3,3.9,4.0,1.5,2.1,2.5,�k,4.4,�L
2014/06/10,04:00,2.2,3.8,4.3,3.9,4.0,1.5,2.1,2.5,�k,4.8,�L
2014/06/10,04:10,2.2,3.8,4.3,3.9,4.0,1.5,2.1,2.5,�k,4.8,��
2014/06/10,04:20,2.2,3.9,4.3,3.9,4.0,1.5,2.1,2.5,�k,4.8,��
2014/06/10,04:30,2.2,3.9,4.3,3.9,4.0,1.5,2.1,2.5,�k,5.4,�L
2014/06/10,04:40,2.2,3.9,4.3,3.9,4.0,1.5,2.1,2.5,�k�k��,2.5,�L
2014/06/10,04:50,2.2,3.9,4.3,3.8,4.0,1.5,2.1,2.5,�k,4.0,�L
2014/06/10,05:00,2.2,3.8,4.3,3.8,4.0,1.5,2.1,2.5,�k,1.9,�L
2014/06/10,05:10,2.2,3.8,4.3,3.8,3.9,1.5,2.1,2.5,�k,4.0,�L
2014/06/10,05:20,2.2,3.8,4.3,3.8,3.9,1.5,2.1,2.5,�k,3.6,�L
2014/06/10,05:30,2.2,3.8,4.3,3.8,3.9,1.5,2.1,2.5,�k,3.3,��
2014/06/10,05:40,2.2,3.8,4.3,3.8,3.9,1.5,2.1,2.5,�k,3.6,��
2014/06/10,05:50,2.2,3.9,4.3,3.8,3.9,1.5,2.1,2.5,�k,3.7,�L
2014/06/10,06:00,2.2,3.9,4.3,3.8,3.9,1.5,2.1,2.5,�k�k��,3.4,��
2014/06/10,06:10,2.2,3.9,4.3,3.8,4.0,1.5,2.1,2.5,�k,3.0,��
2014/06/10,06:20,2.2,3.9,4.3,3.8,4.0,1.5,2.1,2.5,�k,3.0,��
2014/06/10,06:30,2.2,3.9,4.3,3.8,4.0,1.5,2.1,2.5,�k,3.1,��
2014/06/10,06:40,2.2,3.9,4.3,3.9,4.0,1.5,2.1,2.5,�k,2.9,��
2014/06/10,06:50,2.2,3.9,4.3,3.9,4.0,1.5,2.2,2.5,�k,3.0,��
2014/06/10,07:00,2.2,3.9,4.3,3.9,4.0,1.5,2.1,2.5,�k,2.6,��
2014/06/10,07:10,2.2,3.9,4.3,3.9,4.0,1.5,2.1,2.5,�k,2.4,��
2014/06/10,07:20,2.2,3.9,4.3,3.9,4.0,1.5,2.1,2.5,�k,2.3,��
2014/06/10,07:30,2.2,3.9,4.3,3.9,4.0,1.5,2.2,2.5,�k�k��,2.8,��
2014/06/10,07:40,2.2,3.9,4.3,3.9,4.0,1.5,2.2,2.5,�k,3.1,��
2014/06/10,07:50,2.2,3.9,4.3,3.9,4.0,1.5,2.2,2.5,�k,3.0,��
2014/06/10,08:00,2.2,3.9,4.3,3.9,4.0,1.5,2.2,2.5,�k,4.1,��
2014/06/10,08:10,2.2,3.9,4.3,3.9,4.0,1.5,2.2,2.5,�k,3.8,��
2014/06/10,08:20,2.2,3.9,4.3,3.9,4.0,1.5,2.2,2.5,�k,4.2,��
2014/06/10,08:30,2.2,3.9,4.3,3.9,4.0,1.5,2.2,2.5,�k,3.9,��
2014/06/10,08:40,2.2,3.9,4.4,3.9,4.0,1.5,2.2,2.5,�k,3.6,��
2014/06/10,08:50,2.2,3.9,4.4,3.9,4.0,1.5,2.2,2.5,�k,3.1,��
2014/06/10,09:00,2.2,3.9,4.4,3.9,4.0,1.5,2.2,2.5,�k,3.1,��
2014/06/10,09:10,2.2,3.9,4.4,3.9,4.0,1.5,2.2,2.5,�k,2.8,��
2014/06/10,09:20,2.2,3.9,4.4,3.9,4.0,1.5,2.2,2.5,�k,3.4,��
2014/06/10,09:30,2.2,3.9,4.4,3.9,4.0,1.5,2.2,2.5,�k�k��,3.7,��
2014/06/10,09:40,2.2,3.9,4.4,3.9,4.0,1.5,2.2,2.5,�k,4.3,��
2014/06/10,09:50,2.2,3.9,4.4,3.9,4.0,1.5,2.2,2.5,�k,4.3,��
2014/06/10,10:00,2.2,3.9,4.4,3.9,4.0,1.5,2.2,2.5,�k,4.0,��
2014/06/10,10:10,2.2,3.9,4.4,3.9,4.1,1.5,2.2,2.5,�k,3.8,��
2014/06/10,10:20,2.2,3.9,4.4,3.9,4.1,1.5,2.2,2.5,�k,4.5,��
2014/06/10,10:30,2.2,3.9,4.4,3.9,4.1,1.5,2.2,2.5,�k,4.4,��
2014/06/10,10:40,2.2,3.9,4.4,3.9,4.1,1.5,2.2,2.5,�k�k��,4.1,��
2014/06/10,10:50,2.2,3.9,4.4,3.9,4.1,1.5,2.2,2.5,�k,4.7,��
2014/06/10,11:00,2.2,4.0,4.4,3.9,4.1,1.5,2.2,2.5,�k�k��,4.2,��
2014/06/10,11:10,2.2,4.0,4.4,3.9,4.1,1.5,2.2,2.5,�k�k��,5.8,��
2014/06/10,11:20,2.2,4.0,4.4,3.9,4.1,1.5,2.2,2.5,�k�k��,4.6,��
2014/06/10,11:30,2.2,4.0,4.4,3.9,4.1,1.5,2.2,2.5,�k�k��,5.7,��
2014/06/10,11:40,2.2,4.0,4.4,3.9,4.1,1.5,2.2,2.5,�k�k��,5.2,��
2014/06/10,11:50,2.2,4.0,4.4,3.9,4.1,1.5,2.2,2.5,�k,5.3,��
2014/06/10,12:00,2.2,4.0,4.4,3.9,4.1,1.5,2.2,2.5,�k�k��,5.2,��
2014/06/10,12:10,2.2,4.0,4.4,3.9,4.1,1.5,2.2,2.5,�k�k��,5.0,��
2014/06/10,12:20,2.2,4.0,4.4,3.9,4.1,1.5,2.2,2.5,�k,5.1,��
2014/06/10,12:30,2.2,4.0,4.4,3.9,4.1,1.5,2.2,2.5,�k�k��,4.4,��
2014/06/10,12:40,2.2,4.0,4.4,3.9,4.1,1.5,2.2,2.5,�k,4.3,��
2014/06/10,12:50,2.2,4.0,4.4,3.9,4.1,1.5,2.2,2.5,�k,4.6,��
2014/06/10,13:00,2.2,4.0,4.4,3.9,4.1,1.5,2.2,2.5,�k,4.4,��
2014/06/10,13:10,2.2,4.0,4.4,3.9,4.1,1.5,2.2,2.5,�k,4.2,��
2014/06/10,13:20,2.2,4.0,4.4,3.9,4.1,1.5,2.2,2.5,�k�k��,3.9,��
2014/06/10,13:30,2.2,4.0,4.4,3.9,4.1,1.5,2.2,2.5,�k,4.9,��
2014/06/10,13:40,2.2,4.0,4.5,3.9,4.1,1.5,2.2,2.5,�k�k��,4.7,��
2014/06/10,13:50,2.2,4.0,4.4,4.0,4.1,1.5,2.2,2.5,�k�k��,4.8,��
2014/06/10,14:00,2.2,4.0,4.5,3.9,4.1,1.5,2.2,2.5,�k�k��,5.1,��
2014/06/10,14:10,2.2,4.0,4.5,4.0,4.1,1.5,2.2,2.5,�k�k��,4.7,��
2014/06/10,14:20,2.2,4.0,4.5,3.9,4.1,1.5,2.2,2.5,�k�k��,4.7,��
2014/06/10,14:30,2.2,4.0,4.5,4.0,4.1,1.5,2.2,2.5,�k��,3.8,��
2014/06/10,14:40,2.2,4.0,4.5,4.0,4.1,1.5,2.2,2.5,�k�k��,4.6,��
2014/06/10,14:50,2.2,4.0,4.5,4.0,4.1,1.5,2.2,2.5,�k��,3.9,��
2014/06/10,15:00,2.2,4.0,4.5,4.0,4.1,1.5,2.2,2.5,�k�k��,4.3,��
2014/06/10,15:10,2.2,4.0,4.5,4.0,4.1,1.5,2.2,2.5,�k��,4.6,��
2014/06/10,15:20,2.2,4.0,4.5,4.0,4.1,1.5,2.2,2.5,�k��,4.1,��
2014/06/10,15:30,2.2,4.0,4.5,4.0,4.1,1.5,2.2,2.5,�k��,4.8,��
2014/06/10,15:40,2.2,4.0,4.5,4.0,4.1,1.5,2.2,2.5,�k��,4.3,��
2014/06/10,15:50,2.2,4.0,4.5,4.0,4.1,1.5,2.2,2.5,�k��,4.1,��
2014/06/10,16:00,2.2,4.0,4.5,4.0,4.1,1.5,2.2,2.5,�k��,3.7,��
2014/06/10,16:10,2.2,4.0,4.5,4.0,4.1,1.5,2.2,2.5,�k��,3.2,��
2014/06/10,16:20,2.2,4.0,4.5,4.0,4.1,1.5,2.2,2.5,�k�k��,2.6,��
2014/06/10,16:30,2.2,4.0,4.5,4.0,4.1,1.5,2.2,2.5,�k�k��,2.7,��
2014/06/10,16:40,2.2,4.0,4.5,4.0,4.1,1.5,2.2,2.5,�k�k��,2.8,��
2014/06/10,16:50,2.2,4.0,4.5,4.0,4.1,1.5,2.2,2.5,�k�k��,2.7,��
2014/06/10,17:00,2.2,4.0,4.5,4.0,4.1,1.5,2.2,2.5,�k,2.5,��
2014/06/10,17:10,2.2,4.0,4.5,4.0,4.1,1.5,2.2,2.5,�k�k��,1.9,��
2014/06/10,17:20,2.2,4.0,4.5,4.0,4.1,1.5,2.2,2.5,�k��,1.1,��
2014/06/10,17:30,2.2,4.0,4.5,4.0,4.1,1.5,2.2,2.5,�k,0.9,��
2014/06/10,17:40,2.2,4.0,4.5,4.0,4.1,1.5,2.2,2.5,�k��,0.5,�L
2014/06/10,17:50,2.2,4.0,4.5,4.0,4.1,1.5,2.2,2.5,�k,0.7,�L
2014/06/10,18:00,2.2,4.0,4.5,4.0,4.1,1.5,2.2,2.5,�k�k��,0.7,��
2014/06/10,18:10,2.2,4.0,4.5,4.0,4.1,1.5,2.2,2.5,�k�k��,0.9,��
2014/06/10,18:20,2.2,4.0,4.5,4.0,4.1,1.5,2.2,2.5,�k�k��,1.1,��
2014/06/10,18:30,2.2,4.0,4.5,4.0,4.1,1.5,2.2,2.5,�k�k��,1.2,�L
2014/06/10,18:40,2.2,4.0,4.5,4.0,4.1,1.5,2.2,2.5,�k�k��,0.7,�L
2014/06/10,18:50,2.2,4.0,4.5,4.0,4.1,1.5,2.2,2.5,�k,1.1,��
2014/06/10,19:00,2.2,4.0,4.5,4.0,4.1,1.5,2.2,2.5,�k,1.2,��
2014/06/10,19:10,2.2,4.0,4.5,4.0,4.1,1.5,2.2,2.5,�k,1.2,��
2014/06/10,19:20,2.2,4.0,4.5,4.0,4.1,1.5,2.2,2.5,�k�k��,1.8,��
2014/06/10,19:30,2.2,4.0,4.5,4.0,4.1,1.5,2.2,2.5,�k,2.1,��
2014/06/10,19:40,2.2,4.0,4.5,4.0,4.1,1.5,2.2,2.5,�k�k��,2.9,��
2014/06/10,19:50,2.2,4.0,4.5,4.0,4.1,1.5,2.2,2.5,�k�k��,2.7,��
2014/06/10,20:00,2.2,4.0,4.5,4.0,4.1,1.5,2.2,2.5,�k,3.4,��
2014/06/10,20:10,2.2,4.0,4.5,4.0,4.1,1.5,2.2,2.5,�k,2.3,��
2014/06/10,20:20,2.2,4.0,4.5,4.0,4.1,1.5,2.2,2.5,�k,2.3,��
2014/06/10,20:30,2.2,4.0,4.5,4.0,4.1,1.5,2.2,2.5,�k,2.1,��
2014/06/10,20:40,2.2,4.0,4.5,4.0,4.1,1.5,2.2,2.5,�k�k��,2.6,��
2014/06/10,20:50,2.2,4.0,4.5,4.0,4.1,1.5,2.2,2.5,�k,2.7,��
2014/06/10,21:00,2.2,4.0,4.5,4.0,4.1,1.5,2.2,2.5,�k,2.8,��
2014/06/10,21:10,2.2,4.0,4.5,4.0,4.1,1.5,2.2,2.5,�k,2.9,��
2014/06/10,21:20,2.2,4.0,4.5,4.0,4.1,1.5,2.2,2.5,�k,2.2,��
2014/06/10,21:30,2.2,4.0,4.5,4.0,4.1,1.5,2.2,2.5,�k�k��,1.9,��
2014/06/10,21:40,2.2,4.0,4.5,4.0,4.1,1.5,2.2,2.5,�k,1.0,��
2014/06/10,21:50,2.2,4.0,4.5,4.0,4.1,1.5,2.2,2.5,�k,0.9,��
2014/06/10,22:00,2.2,4.0,4.5,4.0,4.1,1.5,2.2,2.5,�k,1.2,��
2014/06/10,22:10,2.2,4.0,4.5,4.0,4.1,1.5,2.2,2.5,�k,1.2,��
2014/06/10,22:20,2.2,4.0,4.5,4.0,4.1,1.5,2.2,2.5,�k�k��,1.3,��
2014/06/10,22:30,2.2,4.0,4.5,4.0,4.1,1.5,2.2,2.5,�k,0.8,��
2014/06/10,22:40,2.2,4.0,4.5,4.0,4.1,1.5,2.2,2.5,�k,1.1,��
2014/06/10,22:50,2.2,4.0,4.5,4.0,4.1,1.5,2.2,2.5,�k�k��,1.2,��
2014/06/10,23:00,2.2,4.0,4.5,4.0,4.1,1.5,2.2,2.5,�k,1.3,��
2014/06/10,23:10,2.2,4.0,4.5,4.0,4.1,1.5,2.2,2.5,�k,2.7,��
2014/06/10,23:20,2.2,4.0,4.5,4.0,4.1,1.5,2.2,2.5,�k�k��,1.8,��
2014/06/10,23:30,2.2,4.0,4.5,4.0,4.1,1.5,2.2,2.5,�k,1.7,��
2014/06/10,23:40,2.2,4.0,4.5,4.0,4.1,1.5,2.2,2.5,�k,2.1,��
2014/06/10,23:50,2.2,4.0,4.5,4.0,4.1,1.5,2.2,2.5,�k,2.2,��
